Startseite
Über Mich
AHP4
Galerie
Sehschlangen
Tourenbuch
Bookmarks
Elektronik
Bewertung
Geschichten
[Tagesmessung] [Jahreswerte] [Information]

Messwerte vom 07.04.2022

Die letzten Messwerte von 23:58:47 Uhr:
KategorieMesswert
Temperatur [°C]7
Luftdruck [mBar]969
Sonneneinstrahlung0
Wind [km/h]18 aus Südwest
Niederschlag [l/m²]0
rel.Luftfeucht.87.8%
CO2 [ppm]407

Diagramme
Messwerte vom 07.04.2022
Tagesaggregation
KategorieMinimumMaximumSchnittSumme
Temperatur [°C]5139.3979
Luftdruck [mBar]962980970.2604
Sonneneinstrahlung248113.1958
Wind [km/h]38
rF [%]54.996.680.43
Niederschlag [l/m²]4.8925
CO2 [ppm]401666503.4
Einordnung alsVegetationstag

Messungen an benachbarten Tagen: Zur Jahresaggregation 2022
Tabelle aller Messwerte
UhrzeitTemperatur [°C]Luftdruck [mBar]SonneWind [km/h]RichtungRegen [l/m²]rF [%]CO2 [ppm]
00:01:46 9 980 0 5 SW 0 76.1 666
00:04:46 9 980 0 6 S 0 75.9 662
00:07:48 9 979 0 9 NW 0 75.9 661
00:10:50 9 980 0 5 S 0 76 662
00:13:45 9 980 0 7 S 0 76.3 658
00:16:46 9 979 0 2 SO 0 77.2 656
00:19:45 9 980 0 3 S 0 77.7 659
00:22:48 9 979 0 4 S 0 78.1 653
00:25:48 9 980 0 6 S 0 78.1 657
00:28:46 9 980 0 8 S 0 77.6 648
00:31:47 10 979 0 4 SW 0 77 655
00:34:48 10 979 0 10 W 0 76.6 648
00:37:47 10 979 0 3 SW 0 76.4 648
00:40:44 10 979 0 6 S 0 76.3 646
00:43:48 10 979 0 8 SW 0 76.5 648
00:46:47 10 979 0 2 S 0 76.8 648
00:49:48 10 979 0 4 SW 0 77.1 656
00:52:47 10 979 0 14 W 0 77.2 656
00:55:46 10 979 0 5 S 0 77.3 658
00:58:48 10 979 0 11 S 0 77.3 651
01:01:46 9 979 0 11 S 0 78.1 641
01:04:46 9 978 0 13 S 0 78.6 634
01:07:45 9 978 0 4 SW 0 79.1 630
01:10:49 9 978 0 6 SO 0 79.6 630
01:13:46 9 979 0 2 S 0 79.7 624
01:16:46 9 978 0 6 S 0 79.7 624
01:19:47 9 978 0 10 SO 0 79.5 625
01:22:48 9 978 0 3 SO 0 79.3 631
01:25:46 9 978 0 5 SO 0 79.4 629
01:28:47 9 979 0 5 W 0 79.2 624
01:31:45 9 978 0 8 S 0 79.1 621
01:34:48 9 978 0 6 SW 0 79 620
01:37:48 9 977 0 9 SW 0 78.9 620
01:40:45 9 978 0 4 S 0 78.9 616
01:43:45 9 977 0 6 S 0 79.1 621
01:46:46 9 978 0 8 SW 0 79.3 618
01:49:50 9 978 0 10 SW 0 79.4 621
01:52:46 9 978 0 8 SO 0 79.4 621
01:55:46 9 978 0 6 W 0 79.4 627
01:58:45 9 977 0 3 SW 0 79.4 621
02:01:47 9 977 0 4 S 0 79.4 622
02:04:46 9 978 0 5 S 0 79.5 621
02:07:48 9 976 0 6 SW 0 79.6 621
02:10:46 9 977 0 6 SW 0 79.9 612
02:13:46 9 977 0 8 S 0 79.9 601
02:16:44 9 977 0 5 S 0 79.8 597
02:19:46 9 977 0 4 SO 0 79.9 610
02:22:45 9 977 0 6 SO 0 80.1 618
02:25:47 9 977 0 4 SO 0 80.1 617
02:28:48 10 977 0 2 S 0 80.1 609
02:31:45 10 977 0 10 S 0 80.1 611
02:34:47 10 977 0 6 S 0 80.1 615
02:37:47 10 977 0 10 S 0 79.9 613
02:40:47 10 976 0 8 O 0 79.9 609
02:43:47 10 976 0 8 SO 0 79.9 607
02:46:46 10 978 0 6 S 0 79.8 613
02:49:46 10 976 0 5 SW 0 79.8 617
02:52:48 10 977 0 12 SW 0 79.8 615
02:55:47 10 976 0 5 SW 0 79.7 611
02:58:48 10 976 0 6 SO 0 79.7 603
03:01:45 9 976 0 4 W 0 79.7 595
03:04:47 9 976 0 5 SO 0 80 593
03:07:48 9 976 0 2 W 0 80.4 601
03:10:47 9 976 0 4 SW 0 80.8 607
03:13:45 9 976 0 3 0 81 609
03:16:49 9 976 0 11 SW 0 81.5 609
03:19:47 9 976 0 7 S 0 82 603
03:22:47 9 976 0 8 S 0 82 594
03:25:47 9 977 0 5 S 0 82 607
03:28:48 9 976 0 5 SW 0 82.3 608
03:31:49 9 976 0 2 SW 0 82.5 618
03:34:46 9 976 0 5 S 0 82.6 609
03:37:45 9 976 0 5 NO 0 82.9 603
03:40:48 9 976 0 8 NW 0 82.9 601
03:43:48 9 976 0 8 SO 0 83.1 601
03:46:45 9 976 0 5 S 0 83.1 604
03:49:44 9 976 0 6 S 0 83 603
03:52:48 9 976 0 3 W 0 83.1 600
03:55:46 9 976 0 7 SW 0 83 600
03:58:49 9 976 0 8 SO 0 82.8 603
04:01:48 9 976 0 8 W 0 82.9 597
04:04:50 9 976 0 6 SO 0 83.6 595
04:07:47 9 976 0 5 W 0 84.1 595
04:10:47 9 976 0 6 S 0 84.6 590
04:13:46 9 976 0 5 S 0 85.9 605
04:16:46 9 976 0 6 S 0 86.7 600
04:19:46 9 976 0 9 S 0 87.7 600
04:22:45 9 976 0 7 S 0 88.2 595
04:25:46 9 976 0 6 S 0 88.8 597
04:28:48 9 976 0 11 SO 0 89.2 589
04:31:47 9 976 0 4 S 0 89.1 597
04:34:45 9 975 0 7 SO 0 89.1 594
04:37:44 9 976 0 7 S 0 88.6 604
04:40:48 9 976 0 10 SW 0 88.3 601
04:43:47 9 976 0 4 SO 0 87.8 598
04:46:44 9 976 0 7 S 0 87.9 589
04:49:47 9 976 0 10 S 0 88.3 586
04:52:46 9 976 0 6 S 0 88.7 586
04:55:49 9 976 0 15 SW 0 88.9 592
04:58:47 9 976 0 18 S 0 89 597
05:01:48 9 976 0 10 SW 0 89 592
05:04:49 9 976 0 7 SW 0 88.8 586
05:07:48 9 976 0 11 SW 0 88.9 579
05:10:47 9 975 0 5 S 0 88.8 578
05:13:48 9 975 0 14 SW 0 88.8 580
05:16:46 9 975 0 4 O 0 88.9 580
05:19:48 9 975 0 5 SW 0 89.3 580
05:22:47 9 976 0 8 W 0 89.6 580
05:25:44 9 975 0 2 W 0 89.7 570
05:28:47 8 975 0 5 SW 0 90.2 564
05:31:48 8 975 0 9 SO 0 91.2 565
05:34:48 8 975 0 5 SW 0 92 568
05:37:48 8 975 0 6 SO 0 92.4 562
05:40:47 8 974 0 7 SW 0 92.6 557
05:43:47 8 974 0 8 SW 0 92.6 559
05:46:47 8 974 0 5 SW 0 92.6 565
05:49:47 8 974 0 1 SW 0 92.6 565
05:52:46 8 973 0 6 SW 0 92.6 569
05:55:46 8 974 0 4 NW 0 92.7 571
05:58:45 8 975 0 4 SW 0 92.6 574
06:01:49 8 974 0 6 SW 0 92.4 580
06:04:45 8 974 0 4 S 0 92.1 580
06:07:46 8 974 0 5 W 0 91.8 577
06:10:45 8 973 0 7 S 0 91.3 571
06:13:46 8 973 0 7 S 0 91.1 571
06:16:45 8 974 4 6 SO 0 91.1 580
06:19:44 8 973 7 9 SO 0 91.2 577
06:22:49 8 973 12 9 NW 0 91.3 577
06:25:46 8 973 19 11 SO 0 91.3 571
06:28:46 8 974 27 9 SW 0 91.3 572
06:31:49 8 974 37 11 SW 0 91.4 568
06:34:46 8 973 46 5 W 0 91.5 571
06:37:46 8 973 49 7 SW 0 91.7 571
06:40:50 8 973 68 5 SW 0 91.4 580
06:43:46 8 973 81 2 W 0 90.9 568
06:46:47 8 973 87 6 SO 0 90.1 568
06:49:47 8 973 91 6 S 0 89.5 574
06:52:49 8 973 107 4 S 0 89.3 574
06:55:47 8 973 102 3 S 0 89.1 571
06:58:46 8 973 97 4 S 0 88.8 571
07:01:47 8 973 105 7 SW 0 88.7 577
07:04:46 8 973 131 7 W 0 88.4 563
07:07:47 8 973 137 4 S 0 88.2 562
07:10:47 9 973 132 7 SW 0 87.7 550
07:13:49 9 973 126 5 SO 0 86.8 562
07:16:47 9 973 127 5 SW 0 86.6 574
07:19:49 9 973 139 5 SO 0 86.2 594
07:22:46 9 973 151 11 S 0 85.5 594
07:25:49 9 973 173 10 W 0 84.6 593
07:28:46 9 973 183 5 SO 0 83.8 595
07:31:47 9 973 185 14 0 82.9 597
07:34:49 9 973 185 13 SO 0 82.2 604
07:37:48 10 973 182 15 S 0 81.4 600
07:40:48 10 973 177 9 SO 0 80.1 600
07:43:46 10 973 179 11 S 0 79.8 597
07:46:48 10 973 176 5 SW 0 79.6 589
07:49:48 10 973 177 9 SW 0 78.9 586
07:52:48 10 973 166 13 SW 0 78.6 588
07:55:49 10 973 165 14 SO 0 78.2 594
07:58:48 10 973 175 14 SO 0 78.1 601
08:01:50 10 973 157 5 NW 0 78.3 600
08:04:49 10 973 180 6 SO 0 78.6 600
08:07:48 10 972 178 8 S 0 78.5 607
08:10:47 10 973 184 15 S 0 78.3 607
08:13:49 10 973 189 19 S 0 77.5 612
08:16:48 10 973 195 7 S 0 77.6 607
08:19:50 10 973 198 14 SO 0 77.6 606
08:22:48 10 973 196 12 SW 0 77.5 605
08:25:49 10 973 187 17 SO 0 77 609
08:28:48 10 973 188 12 SW 0 77.6 603
08:31:47 10 973 189 7 S 0 77.7 598
08:34:49 10 972 191 10 SO 0 78.4 597
08:37:49 10 972 192 12 S 0 78.6 600
08:40:48 10 972 193 5 SO 0 78.7 600
08:43:47 10 972 196 7 S 0 79.1 600
08:46:47 10 972 197 5 W 0 78.5 598
08:49:49 10 972 196 9 SW 0 77.9 597
08:52:50 10 973 196 10 SW 0 77.3 604
08:55:50 10 972 197 6 NO 0 77.1 603
08:58:48 10 972 195 12 SW 0 77 600
09:01:50 10 971 193 17 NW 0 76.3 603
09:04:48 10 971 190 10 SW 0 76.2 604
09:07:49 10 972 193 11 0 74.8 608
09:10:47 11 971 194 10 S 0 74.6 609
09:13:47 11 971 194 5 S 0 74.5 600
09:16:50 11 972 194 12 SW 0 74.5 593
09:19:47 11 970 195 7 SW 0 74.4 594
09:22:52 11 970 197 8 SO 0 73.8 597
09:25:49 11 971 199 5 S 0 73.6 597
09:28:50 11 970 202 11 SW 0 73.9 584
09:31:46 11 970 204 7 SO 0 73.4 591
09:34:48 11 970 210 9 SO 0 72.6 585
09:37:47 12 970 206 7 N 0 72.1 585
09:40:49 12 970 216 21 W 0 72.2 580
09:43:47 12 970 218 11 SO 0 71.1 582
09:46:49 12 971 218 12 W 0 70.2 577
09:49:51 12 969 221 15 SW 0 70.1 574
09:52:50 12 970 219 12 NW 0 70 575
09:55:52 12 969 221 10 SW 0 69 580
09:58:48 13 970 216 8 W 0 69 582
10:01:48 12 970 218 7 NW 0 68.4 570
10:04:51 12 970 222 23 SW 0 68.7 566
10:07:49 13 969 225 17 SO 0 68.5 567
10:10:49 13 970 224 12 SO 0 68.7 559
10:13:48 13 970 213 14 SW 0 68.1 565
10:16:47 13 969 195 13 SO 0 67.1 563
10:19:51 13 969 204 16 S 0 67.6 560
10:22:51 12 969 212 13 SW 0 68.3 557
10:25:48 12 969 205 26 O 0 68.7 553
10:28:51 12 970 187 16 SW 0 68.8 545
10:31:48 12 969 205 31 S 0 68.9 547
10:34:48 12 969 220 35 SO 0 69.7 544
10:37:50 12 969 215 16 SW 0 70 539
10:40:49 12 969 202 21 S 0 69.6 536
10:43:50 12 969 216 13 S 0 69.4 539
10:46:48 12 969 215 29 S 0 69.5 532
10:49:48 12 969 212 8 S 0 69 539
10:52:47 12 969 213 16 W 0 69.2 533
10:55:50 12 969 211 15 SO 0 69.6 524
10:58:47 12 969 217 4 SO 0 69.3 530
11:01:48 13 968 213 9 SO 0 69.5 540
11:04:46 13 969 199 17 S 0 68.5 542
11:07:49 12 968 209 15 SW 0 67.3 547
11:10:48 12 968 213 14 S 0 67.1 542
11:13:50 12 968 217 16 SW 0 67.3 531
11:16:47 12 969 216 28 SW 0 67.4 524
11:19:50 13 969 221 33 SO 0 66.9 518
11:22:51 13 969 218 38 SW 0 66.6 504
11:25:50 13 968 213 16 SW 0 66.2 498
11:28:49 13 968 218 15 S 0 66.2 498
11:31:47 13 968 217 10 SW 0 66.9 506
11:34:51 13 968 213 19 S 0 67.6 504
11:37:47 13 967 209 9 0 67.4 507
11:40:48 12 967 203 16 O 0 67.2 495
11:43:49 12 967 215 21 SO 0 67.8 489
11:46:48 12 967 208 12 SW 0 68.3 480
11:49:47 12 967 197 12 0 69.2 480
11:52:48 12 967 193 15 SW 0 69.7 483
11:55:50 12 968 198 19 SO 0 69.9 480
11:58:49 12 967 209 25 SO 0 71.3 481
12:01:47 12 967 217 11 S 0 75.8 474
12:04:47 11 967 214 19 SW 0 75.9 456
12:07:49 11 966 206 28 SO 0 75.9 457
12:10:48 11 966 197 16 SW 0 77.3 451
12:13:48 11 966 205 14 SO 0 77.6 451
12:16:49 11 966 213 19 S 0 79 448
12:19:48 11 966 204 25 SW 0 79.5 448
12:22:49 11 966 219 19 SO 0 81 448
12:25:49 11 965 226 19 SO 0 82 451
12:28:48 11 966 226 6 S 0.2575 84 451
12:31:49 11 966 229 17 SW 0 84.1 445
12:34:47 11 965 228 12 S 0 83.8 443
12:37:49 12 965 229 28 S 0 77.7 442
12:40:48 12 965 230 16 SO 0 77.2 443
12:43:49 12 965 227 8 SW 0 75.5 433
12:46:45 12 965 224 16 S 0 75.2 419
12:49:49 13 965 215 17 S 0 75.4 418
12:52:46 12 965 205 19 S 0 74.8 418
12:55:47 12 962 208 30 S 0 76.5 413
12:58:45 11 965 214 18 S 0 79.8 416
13:01:50 11 965 224 9 S 0 84.6 407
13:04:49 11 965 230 22 SW 0 85.2 410
13:07:47 11 965 229 25 S 0 85.7 407
13:10:49 12 965 231 13 SO 0 84.8 410
13:13:49 13 965 233 6 SO 0 83.8 413
13:16:51 13 965 229 16 SW 0 78.2 420
13:19:49 13 965 233 19 SW 0 77.7 419
13:22:49 13 965 219 31 S 0 76.4 427
13:25:46 13 965 232 9 S 0 77.3 422
13:28:47 13 965 233 17 S 0 75.6 424
13:31:48 13 965 231 14 SO 0 75.5 431
13:34:49 13 964 223 23 S 0 75.6 430
13:37:48 13 963 181 15 W 0 76.9 430
13:40:46 11 965 212 28 W 0.515 77.5 417
13:43:50 9 966 202 14 W 0.2575 82.2 407
13:46:47 11 965 191 20 W 0.2575 88.4 407
13:49:48 10 965 171 10 W 0 92.5 404
13:52:47 10 966 165 13 S 0.2575 94.7 415
13:55:47 6 966 160 8 S 0 95.7 419
13:58:49 6 966 160 9 W 0.2575 96.6 426
14:01:47 6 966 150 16 W 0.2575 96.6 427
14:04:48 6 966 150 6 NW 0 96.6 424
14:07:48 6 966 156 8 SW 0.2575 96.6 425
14:10:45 6 966 170 4 0.2575 96.6 425
14:13:48 6 966 180 3 SW 0 96.6 430
14:16:47 6 966 183 10 W 0.2575 96.6 430
14:19:47 6 966 194 5 S 0.2575 96.6 429
14:22:47 6 965 185 2 W 0.515 96.6 424
14:25:47 6 965 175 1 SW 0 96.6 422
14:28:47 6 966 156 5 NW 0 96.6 430
14:31:46 6 965 161 1 S 0.2575 96.6 436
14:34:45 6 965 186 5 S 0 96.6 433
14:37:47 6 966 200 6 O 0 96.6 434
14:40:49 6 966 218 4 SO 0 96.6 430
14:43:49 6 965 220 5 SW 0 96.6 435
14:46:48 6 966 226 3 W 0 96.6 439
14:49:49 7 965 229 2 SW 0 96.6 445
14:52:47 7 965 210 9 S 0 96.6 451
14:55:45 7 965 211 6 S 0 96.6 444
14:58:48 7 965 223 4 SO 0 96.6 444
15:01:48 7 966 229 3 SW 0 96.6 445
15:04:48 7 966 230 10 SO 0 96.6 448
15:07:46 8 965 240 8 N 0 96.6 445
15:10:48 8 966 232 10 W 0 96.6 448
15:13:47 8 966 233 6 N 0 96.6 452
15:16:46 8 965 231 9 O 0 96.6 445
15:19:47 9 966 234 1 NW 0 96.4 451
15:22:47 9 966 237 5 S 0 95.6 457
15:25:48 9 966 228 7 NO 0 95 466
15:28:47 9 965 246 4 W 0 94.2 456
15:31:47 10 966 231 2 S 0 94 454
15:34:49 11 965 246 6 SW 0 89.4 466
15:37:46 11 965 246 5 S 0 87.5 471
15:40:47 11 966 246 4 SW 0 86.5 477
15:43:48 11 966 246 8 O 0 87.9 476
15:46:48 11 965 246 8 SW 0 85.9 472
15:49:46 11 966 245 4 N 0 84.5 477
15:52:47 11 965 239 5 S 0 85.4 489
15:55:47 11 965 247 7 N 0 82.8 490
15:58:49 12 965 240 6 SO 0 79.5 489
16:01:49 12 965 247 4 S 0 78.8 489
16:04:48 12 965 247 7 O 0 77.2 489
16:07:48 12 965 247 18 S 0 75.8 486
16:10:48 12 965 244 5 O 0 74.7 404
16:13:51 12 965 239 12 W 0 75.7 404
16:16:48 12 965 247 15 SO 0 73 407
16:19:50 12 965 247 13 W 0 73.5 404
16:22:46 12 965 247 11 NW 0 73.8 406
16:25:47 12 965 247 11 SW 0 72.9 404
16:28:48 13 965 247 6 NO 0 70 407
16:31:49 13 965 247 18 S 0 69.8 404
16:34:49 13 965 246 11 SW 0 70.4 407
16:37:49 13 965 247 18 W 0 70.9 407
16:40:49 13 965 227 18 NW 0 71.9 407
16:43:48 13 965 248 3 W 0 71.1 407
16:46:48 13 965 247 8 NW 0 70.4 407
16:49:48 13 965 247 9 S 0 68.8 406
16:52:49 12 965 228 12 W 0 67.2 404
16:55:48 12 966 231 9 NO 0 67.1 404
16:58:46 12 965 227 6 S 0 69.1 406
17:01:50 12 965 225 9 NW 0 70.5 407
17:04:47 12 965 233 3 W 0 69.1 406
17:07:47 12 965 223 4 S 0 68.8 407
17:10:46 11 965 228 16 S 0 70.1 403
17:13:47 11 965 237 21 S 0 71 404
17:16:45 12 965 245 7 S 0 68.7 407
17:19:45 12 965 248 6 0 67.5 407
17:22:48 12 965 248 9 NW 0 67.2 407
17:25:46 12 965 231 6 O 0 65.5 407
17:28:49 12 965 227 11 W 0 62 406
17:31:48 12 965 225 10 NW 0 61.6 406
17:34:46 12 965 247 10 S 0 61.7 406
17:37:50 12 965 248 10 SW 0 62.5 405
17:40:47 12 965 247 1 0 65 406
17:43:47 13 965 247 5 S 0 59.1 401
17:46:51 13 965 240 10 S 0 58.3 404
17:49:48 13 966 247 5 SO 0 58.4 404
17:52:50 13 965 232 10 S 0 56.6 407
17:55:48 12 965 241 9 SW 0 54.9 406
17:58:49 12 965 229 9 NW 0 55.2 407
18:01:47 12 965 233 4 W 0 58.2 407
18:04:47 12 965 231 4 S 0 59.1 404
18:07:46 12 965 221 4 N 0 57.6 407
18:10:47 11 965 222 14 SW 0 58.3 407
18:13:49 11 965 223 10 SO 0 59.7 406
18:16:48 11 965 204 11 NW 0 60.7 407
18:19:49 11 965 211 15 N 0 59.1 404
18:22:49 11 965 213 16 SW 0 59.2 404
18:25:47 11 965 246 8 S 0 59.7 404
18:28:50 11 966 246 19 SW 0 58 406
18:31:46 12 966 245 8 W 0 57.2 404
18:34:46 11 966 244 7 O 0 56.9 407
18:37:47 11 966 244 26 S 0 57 404
18:40:50 11 965 244 6 NO 0 55.9 407
18:43:48 11 966 243 5 O 0 56.2 406
18:46:48 11 966 243 7 SW 0 55.9 407
18:49:48 11 966 239 21 W 0 56.2 407
18:52:49 11 966 240 6 NW 0 58 404
18:55:47 11 966 235 4 SW 0 58.5 404
18:58:48 11 966 236 17 S 0 58.2 404
19:01:48 10 966 220 9 W 0 58.7 407
19:04:50 10 966 225 7 S 0 59.6 404
19:07:49 10 966 218 5 SW 0 60 407
19:10:49 10 965 199 6 W 0 61.4 404
19:13:51 9 966 189 3 NW 0 62.5 407
19:16:49 9 966 179 31 NW 0 62.2 405
19:19:49 9 966 164 11 S 0 62.3 404
19:22:47 9 966 149 11 O 0 62.3 404
19:25:48 9 966 133 8 NW 0 61 406
19:28:46 9 966 134 7 S 0 60.8 403
19:31:49 10 966 124 7 W 0 60.4 407
19:34:46 10 966 114 8 W 0 60.3 404
19:37:48 10 966 105 8 SW 0 59.7 407
19:40:48 10 967 95 3 SW 0 60.9 405
19:43:45 9 967 78 6 SW 0 61.5 407
19:46:49 9 967 67 12 NW 0 62.2 404
19:49:49 9 967 52 11 W 0 64 407
19:52:50 9 967 60 3 SW 0 67.2 407
19:55:48 9 967 61 3 W 0 68.2 404
19:58:45 8 966 35 3 S 0 68.7 407
20:01:49 8 966 31 2 O 0 69.9 403
20:04:45 9 967 17 3 S 0 68.6 401
20:07:50 9 967 8 9 NW 0 66.4 407
20:10:47 9 967 3 7 SW 0 65.2 407
20:13:45 9 968 0 6 S 0 64.3 403
20:16:46 9 969 0 14 SW 0.2575 73.3 406
20:19:46 7 969 0 23 0.2575 81.5 404
20:22:47 6 969 0 12 S 0.2575 90.2 407
20:25:47 5 969 0 18 W 0.2575 93.2 407
20:28:48 5 969 0 23 SW 0 94.2 404
20:31:45 5 969 0 6 W 0 96 404
20:34:44 5 969 0 4 W 0 96.4 406
20:37:49 5 968 0 6 SW 0 96.6 406
20:40:47 5 969 0 2 SO 0 96.6 404
20:43:47 5 969 0 4 W 0 96.6 404
20:46:47 5 968 0 5 SO 0 96.6 407
20:49:48 5 969 0 26 NW 0 96.6 405
20:52:46 5 969 0 11 S 0 96.6 407
20:55:48 5 969 0 6 NW 0 96.6 407
20:58:46 5 969 0 9 SW 0 96.6 407
21:01:47 5 969 0 13 W 0 96.6 407
21:04:44 5 969 0 3 S 0 96.6 406
21:07:49 5 969 0 11 SW 0 96.6 405
21:10:46 6 969 0 8 W 0 96.6 404
21:13:45 6 969 0 4 W 0 96.6 404
21:16:46 6 969 0 7 SW 0 96.6 404
21:19:47 6 969 0 3 SW 0 96.6 407
21:22:46 6 969 0 8 NO 0 96.5 404
21:25:49 6 969 0 3 NW 0 96.2 406
21:28:47 6 969 0 8 SW 0 95.8 403
21:31:46 6 969 0 3 S 0 95.5 407
21:34:45 6 969 0 3 SO 0 95.2 406
21:37:46 6 969 0 11 SO 0 95 406
21:40:46 6 969 0 4 S 0 94.1 403
21:43:45 6 969 0 9 W 0 93.8 404
21:46:47 6 969 0 12 SW 0 93 404
21:49:46 6 969 0 7 SW 0 92.9 407
21:52:45 6 969 0 13 W 0 92.8 407
21:55:48 6 969 0 4 SO 0 92.9 404
21:58:49 6 969 0 13 SW 0 92.9 405
22:01:47 6 969 0 6 S 0 92.8 407
22:04:49 6 969 0 10 SO 0 92.8 406
22:07:47 6 969 0 11 O 0 92.6 407
22:10:48 6 969 0 19 NW 0 92.1 407
22:13:47 6 969 0 13 W 0 90.4 406
22:16:46 6 969 0 8 S 0 90.1 407
22:19:48 6 969 0 17 S 0 91.1 403
22:22:47 6 969 0 13 SW 0 91.6 407
22:25:49 6 969 0 10 NW 0 93.2 407
22:28:47 6 969 0 9 SO 0 94 406
22:31:47 6 969 0 12 SW 0 94.7 407
22:34:48 6 969 0 3 SW 0 95.4 404
22:37:45 6 970 0 9 NO 0 95.7 404
22:40:48 6 969 0 8 NO 0 95.2 404
22:43:47 6 969 0 5 W 0 95.3 407
22:46:46 6 969 0 3 W 0 95.3 407
22:49:46 6 969 0 15 O 0 95.3 404
22:52:47 6 969 0 9 SO 0 95.5 407
22:55:49 6 969 0 12 SO 0 95.4 404
22:58:46 6 969 0 26 NO 0 95 407
23:01:47 6 969 0 14 SW 0 94.6 407
23:04:48 6 969 0 2 SW 0 93.9 404
23:07:47 6 969 0 2 NW 0 93.7 407
23:10:49 6 969 0 10 NW 0 93.8 404
23:13:47 6 969 0 8 SO 0 93.6 404
23:16:47 6 969 0 10 SW 0 93.1 408
23:19:46 6 969 0 5 S 0 92.8 407
23:22:48 6 969 0 14 SW 0 92.3 404
23:25:45 6 969 0 9 S 0 92 407
23:28:44 6 969 0 5 W 0 92.4 407
23:31:48 6 969 0 9 S 0 92.4 405
23:34:48 6 969 0 11 SW 0 91.7 405
23:37:48 6 969 0 2 SO 0 90.9 407
23:40:47 6 969 0 9 S 0 90.2 404
23:43:48 6 969 0 7 W 0 89.8 405
23:46:47 6 969 0 8 SW 0 89.4 407
23:49:46 6 969 0 4 S 0 89.4 407
23:52:50 6 969 0 12 NW 0 89.1 404
23:55:48 7 969 0 5 W 0 88.7 404
23:58:47 7 969 0 18 SW 0 87.8 407

Letzte Änderung : 04-Jan-2022
Copyright Jens Köhler, Wolfsburg, Obere Dorfstraße 10d